星链-32244 (STARLINK-32244)

导读 | 豆包AI

STARLINK-32244是美国SpaceX公司星链(Starlink)卫星互联网星座的成员,于2024年8月10日由美国发射升空。该卫星运行在低地球轨道,属于星链星座第二代扩容卫星,旨在为全球尤其是基础设施匮乏地区提供高速低延迟宽带互联网服务。作为星链全球覆盖计划的一环,它助力拓展星座网络容量,同时也因大规模低轨卫星部署,引发了太空拥堵与天文观测影响的讨论。

基本信息
目录编号:
60411
目录名称:
STARLINK-32244
国际标识:
2024-141P
轨道中心:
EARTH
卫星名称:
星链-32244 (STARLINK-32244)
卫星全名:
星链-32244 (STARLINK-32244)
卫星状态:
在轨 (已飞行582 天)
发射日期:
2024-08-10 UTC
国别 :
美国 (US)
星等 :
--
轨道信息
数据来源 国际轨道数据
星历时间: 2026-03-15T05:19:23+0800
17小时前
查看轨道信息
半长轴: 6853.327km
偏心率: 0.0000908
轨道倾角: 53.159°
近地点辐角 88.423°
升交点赤经 218.648°
平近点角 271.688°
近地点: 474.567km
远地点: 475.813km
周期: 94.105分钟
每日圈数: 15.302085
详细信息
卫星平台:
Starlink v2.0 mini
运营商:
太空探索技术公司
运营商所在国:
美国
制造商(研发单位):
太空探索技术公司
制造商所在国:
美国
使用方式:
暂无
卫星简介
星链(Starlink)计划是由太空探索技术公司(SpaceX)提出的一个巨型低轨卫星互联网星座项目,计划在2019年至2024年间在太空搭建由约1.2万颗卫星组成的“星链”网络,其中1584颗将部署在地球上空550千米处的近地轨道,并从2020年开始工作。该卫星仍在工作。
2D轨道图
3D轨道图
轨道高度分析图
轨道倾角分析图
轨道综合分析图
查看轨道综合分析图